sat.trackr.live / text

‹ back to catalog

STARLINK-35384

NORAD 65884 · 2025-224C

PAYLOAD ACTIVE UNKNOWN

§ Identity

Operator
Country
US
Launch date
2025-10-07
Launch site
AFETR
Launch vehicle
Mass (kg)
RCS (m²)

Purposes: comms

External: N2YO · Heavens-Above · Gunter

§ Orbital elements

Epoch: 2026-09-20T06:35:43.999584Z

Period
93.85 min
Inclination
53.1593°
Eccentricity
0.0001883
Mean motion
15.34418576 rev/d
Perigee alt
461.4 km
Apogee alt
463.9 km
Semi-major
6,840.8 km
B*
6.6970e-4
RAAN
186.9970°
Arg perigee
90.4675°
Mean anomaly
269.6543°
Rev number
5,462

§ Raw data

STARLINK-353841 65884U 25224C   26263.27481481  .00022331  00000+0  66970-3 0  99912 65884  53.1593 186.9970 0001883  90.4675 269.6543 15.34418576 54626

JSON: /api/v1/satellites/65884 · /tle

For live sub-satellite position, see the globe view (requires WebGL).

§ Visibility from observer

Set your observer location to see the next 7 days of passes ≥ 10°. The values pass through the URL so the page stays shareable.

No JS? Fill the form by hand. The geolocation button needs JavaScript.